Chillicothe, MO

10:37 AM CDT on July 20, 2017 (GMT -0500)
Chillicothe

Weather History for KCDJ - December, 2012

Change the Weather History Date:

Tuesday, December 25, 2012

  Actual Average (KIRK) Record (KIRK)
Temperature  
Mean Temperature 16 °F -  
Max Temperature 21 °F 31 °F 63 °F (1936)
Min Temperature 10 °F 15 °F -15 °F (1983)
Degree Days  
Heating Degree Days 50    
Moisture  
Dew Point 10 °F    
Average Humidity 76    
Maximum Humidity 84    
Minimum Humidity 65    
Precipitation  
Precipitation 0.00 in - - ()
Sea Level Pressure  
Sea Level Pressure 30.35 in    
Wind  
Wind Speed 9 mph (North)    
Max Wind Speed 13 mph    
Max Gust Speed 23 mph    
Averages and records for this station are not official NWS values.
T = Trace of Precipitation, MM = Missing Value Source: NWS Daily Summary

Daily Weather History Graph

Daily Weather History Graph

Search for Another Location

Airport or City:

Trip Planner

Search our weather history database for the weather conditions in past years. The results will help you decide how hot, cold, wet, or windy it might be!

Date:

Astronomy

Dec. 25, 2012 Rise Set
Actual Time 7:34 AM CST 4:55 PM CST
Civil Twilight 7:03 AM CST 5:25 PM CST
Nautical Twilight 6:29 AM CST 5:59 PM CST
Astronomical Twilight 5:56 AM CST 6:32 PM CST
Moon 3:04 PM CST (12/25) 5:07 AM CST (12/25)
Length of Visible Light 10h 22m
Length of Day
9h 21m
Waxing Gibbous, 94% of the Moon is Illuminated
Dec 25
Waxing Gibbous
Dec 28
Full
Jan 4
Last Quarter
Jan 11
New
Jan 18
First Quarter

Hourly Weather History & Observations

Time (CST) Temp. Windchill Dew Point Humidity Pressure Visibility Wind Dir Wind Speed Gust Speed Precip Events Conditions
12:52 AM 19.0 °F 9.0 °F 14.0 °F 81% 30.27 in - NNE 8.1 mph - N/A   Unknown
1:52 AM 18.0 °F 8.7 °F 12.9 °F 81% 30.28 in - North 6.9 mph - N/A   Unknown
2:52 AM 17.1 °F 6.6 °F 12.0 °F 81% 30.30 in - North 8.1 mph - N/A   Unknown
3:52 AM 17.1 °F 5.8 °F 12.0 °F 81% 30.29 in - North 9.2 mph - N/A   Unknown
4:52 AM 17.1 °F 6.6 °F 12.0 °F 81% 30.30 in - North 8.1 mph - N/A   Unknown
5:52 AM 16.0 °F 5.3 °F 12.0 °F 84% 30.32 in - North 8.1 mph - N/A   Unknown
6:52 AM 15.1 °F 2.5 °F 10.9 °F 84% 30.33 in - North 10.4 mph - N/A   Unknown
7:52 AM 14.0 °F 1.2 °F 10.0 °F 84% 30.35 in - North 10.4 mph 18.4 mph N/A   Unknown
8:52 AM 15.1 °F 2.5 °F 9.0 °F 77% 30.40 in - North 10.4 mph 17.3 mph N/A   Unknown
9:52 AM 15.1 °F 1.1 °F 9.0 °F 77% 30.44 in - North 12.7 mph - N/A   Unknown
10:52 AM 15.1 °F 4.2 °F 9.0 °F 77% 30.43 in - North 8.1 mph 20.7 mph N/A   Unknown
11:52 AM 17.1 °F 3.6 °F 10.0 °F 74% 30.34 in - North 12.7 mph 23.0 mph N/A   Unknown
12:52 PM 19.9 °F 10.1 °F 10.9 °F 68% 30.36 in - North 8.1 mph 17.3 mph N/A   Unknown
1:52 PM 19.9 °F 7.3 °F 12.0 °F 71% 30.31 in - North 12.7 mph 23.0 mph N/A   Unknown
2:52 PM 21.0 °F 8.6 °F 10.9 °F 65% 30.32 in - North 12.7 mph 21.9 mph N/A   Unknown
3:52 PM 21.0 °F 10.6 °F 10.9 °F 65% 30.35 in - North 9.2 mph - N/A   Unknown
4:52 PM 19.9 °F 10.1 °F 10.0 °F 65% 30.37 in - North 8.1 mph - N/A   Unknown
5:52 PM 18.0 °F 4.8 °F 9.0 °F 68% 30.38 in - North 12.7 mph 16.1 mph N/A   Unknown
6:52 PM 16.0 °F 4.4 °F 9.0 °F 74% 30.39 in - North 9.2 mph - N/A   Unknown
7:52 PM 14.0 °F 2.0 °F 8.1 °F 77% 30.38 in - North 9.2 mph 19.6 mph N/A   Unknown
8:52 PM 12.9 °F -0.9 °F 7.0 °F 77% 30.36 in - North 11.5 mph 21.9 mph N/A   Unknown
9:52 PM 12.0 °F -2.7 °F 6.1 °F 77% 30.35 in - North 12.7 mph 21.9 mph N/A   Unknown
10:52 PM 10.9 °F -2.6 °F 3.9 °F 73% 30.34 in - North 10.4 mph 17.3 mph N/A   Unknown
11:52 PM 10.9 °F 0.2 °F 6.1 °F 81% 30.35 in - NNW 6.9 mph - N/A   Unknown